Time,TemperatureF,DewpointF,PressureIn,WindDirection,WindDirectionDegrees,WindSpeedMPH,WindSpeedGustMPH,Humidity,HourlyPrecipIn,Conditions,Clouds,dailyrainin,SoftwareType,DateUTC
2013-09-10 00:00:00,62.0,-99.9,-100.00,South,185,15.0,18.0,-999,-99.99,,,-99.99,,2013-09-10 06:00:00,
2013-09-10 00:52:00,62.0,-99.9,-100.00,South,185,15.0,18.0,-999,-99.99,,,-99.99,,2013-09-10 06:52:00,
2013-09-10 01:00:00,66.0,-99.9,-100.00,South,185,10.0,24.0,-999,-99.99,,,-99.99,,2013-09-10 07:00:00,
2013-09-10 01:52:00,66.0,-99.9,-100.00,South,185,10.0,24.0,-999,-99.99,,,-99.99,,2013-09-10 07:52:00,
2013-09-10 02:00:00,64.0,-99.9,-100.00,South,185,12.0,19.0,-999,-99.99,,,-99.99,,2013-09-10 08:00:00,
2013-09-10 02:52:00,64.0,-99.9,-100.00,South,185,12.0,19.0,-999,-99.99,,,-99.99,,2013-09-10 08:52:00,
2013-09-10 03:00:00,62.0,-99.9,-100.00,South,185,9.0,15.0,-999,-99.99,,,-99.99,,2013-09-10 09:00:00,
2013-09-10 03:54:00,62.0,-99.9,-100.00,South,185,9.0,15.0,-999,-99.99,,,-99.99,,2013-09-10 09:54:00,
2013-09-10 04:00:00,62.0,-99.9,-100.00,South,185,5.0,10.0,-999,-99.99,,,-99.99,,2013-09-10 10:00:00,
2013-09-10 04:53:00,62.0,-99.9,-100.00,South,185,5.0,10.0,-999,-99.99,,,-99.99,,2013-09-10 10:53:00,
2013-09-10 05:00:00,59.0,-99.9,-100.00,South,185,8.0,13.0,-999,-99.99,,,-99.99,,2013-09-10 11:00:00,
2013-09-10 05:52:00,59.0,-99.9,-100.00,South,185,8.0,13.0,-999,-99.99,,,-99.99,,2013-09-10 11:52:00,
2013-09-10 06:00:00,59.0,-99.9,-100.00,South,185,4.0,9.0,-999,-99.99,,,-99.99,,2013-09-10 12:00:00,
2013-09-10 06:52:00,59.0,-99.9,-100.00,South,185,4.0,9.0,-999,-99.99,,,-99.99,,2013-09-10 12:52:00,
2013-09-10 07:00:00,55.0,-99.9,-100.00,South,185,5.0,5.0,-999,-99.99,,,-99.99,,2013-09-10 13:00:00,
2013-09-10 07:52:00,55.0,-99.9,-100.00,South,185,5.0,5.0,-999,-99.99,,,-99.99,,2013-09-10 13:52:00,
2013-09-10 08:00:00,62.0,-99.9,-100.00,South,185,5.0,11.0,-999,-99.99,,,-99.99,,2013-09-10 14:00:00,
2013-09-10 08:52:00,62.0,-99.9,-100.00,South,185,5.0,11.0,-999,-99.99,,,-99.99,,2013-09-10 14:52:00,
2013-09-10 09:00:00,66.0,-99.9,-100.00,South,185,5.0,11.0,-999,-99.99,,,-99.99,,2013-09-10 15:00:00,
2013-09-10 09:54:00,66.0,-99.9,-100.00,South,185,5.0,11.0,-999,-99.99,,,-99.99,,2013-09-10 15:54:00,
2013-09-10 10:00:00,71.0,-99.9,-100.00,South,185,8.0,9.0,-999,-99.99,,,-99.99,,2013-09-10 16:00:00,
2013-09-10 10:53:00,71.0,-99.9,-100.00,South,185,8.0,9.0,-999,-99.99,,,-99.99,,2013-09-10 16:53:00,
2013-09-10 11:00:00,73.0,-99.9,-100.00,South,185,6.0,9.0,-999,-99.99,,,-99.99,,2013-09-10 17:00:00,
2013-09-10 11:23:00,71.0,-99.9,-100.00,South,185,5.0,7.0,-999,-99.99,,,-99.99,,2013-09-10 17:23:00,
2013-09-10 11:34:00,71.0,-99.9,-100.00,South,185,5.0,7.0,-999,-99.99,,,-99.99,,2013-09-10 17:34:00,
2013-09-10 11:43:00,71.0,-99.9,-100.00,South,185,5.0,7.0,-999,-99.99,,,-99.99,,2013-09-10 17:43:00,
2013-09-10 11:53:00,73.0,-99.9,-100.00,South,185,6.0,9.0,-999,-99.99,,,-99.99,,2013-09-10 17:53:00,
2013-09-10 12:00:00,77.0,-99.9,-100.00,South,185,7.0,7.0,-999,-99.99,,,-99.99,,2013-09-10 18:00:00,
2013-09-10 12:52:00,77.0,-99.9,-100.00,South,185,7.0,7.0,-999,-99.99,,,-99.99,,2013-09-10 18:52:00,
2013-09-10 13:00:00,80.0,-99.9,-100.00,South,185,4.0,9.0,-999,-99.99,,,-99.99,,2013-09-10 19:00:00,
2013-09-10 13:53:00,80.0,-99.9,-100.00,South,185,4.0,9.0,-999,-99.99,,,-99.99,,2013-09-10 19:53:00,
2013-09-10 14:00:00,78.0,-99.9,-100.00,SSW,206,7.0,13.0,-999,-99.99,,,-99.99,,2013-09-10 20:00:00,
2013-09-10 14:52:00,78.0,-99.9,-100.00,SSW,206,7.0,13.0,-999,-99.99,,,-99.99,,2013-09-10 20:52:00,
2013-09-10 15:00:00,80.0,-99.9,-100.00,SSW,209,9.0,15.0,-999,-99.99,,,-99.99,,2013-09-10 21:00:00,
2013-09-10 15:54:00,80.0,-99.9,-100.00,SSW,209,9.0,15.0,-999,-99.99,,,-99.99,,2013-09-10 21:54:00,
2013-09-10 16:00:00,77.0,-99.9,-100.00,South,185,7.0,17.0,-999,-99.99,,,-99.99,,2013-09-10 22:00:00,
2013-09-10 16:55:00,77.0,-99.9,-100.00,South,185,7.0,17.0,-999,-99.99,,,-99.99,,2013-09-10 22:55:00,
2013-09-10 17:00:00,77.0,-99.9,-100.00,South,185,15.0,17.0,-999,-99.99,,,-99.99,,2013-09-10 23:00:00,
2013-09-10 17:53:00,77.0,-99.9,-100.00,South,185,15.0,17.0,-999,-99.99,,,-99.99,,2013-09-10 23:53:00,
2013-09-10 18:00:00,78.0,-99.9,-100.00,South,185,9.0,19.0,-999,-99.99,,,-99.99,,2013-09-11 00:00:00,
2013-09-10 18:52:00,78.0,-99.9,-100.00,South,185,9.0,19.0,-999,-99.99,,,-99.99,,2013-09-11 00:52:00,
2013-09-10 19:00:00,69.0,-99.9,-100.00,South,185,11.0,17.0,-999,-99.99,,,-99.99,,2013-09-11 01:00:00,
2013-09-10 19:53:00,69.0,-99.9,-100.00,South,185,11.0,17.0,-999,-99.99,,,-99.99,,2013-09-11 01:53:00,
2013-09-10 20:00:00,68.0,-99.9,-100.00,South,185,7.0,13.0,-999,-99.99,,,-99.99,,2013-09-11 02:00:00,
2013-09-10 20:52:00,68.0,-99.9,-100.00,South,185,7.0,13.0,-999,-99.99,,,-99.99,,2013-09-11 02:52:00,
2013-09-10 21:00:00,66.0,-99.9,-100.00,South,185,11.0,14.0,-999,-99.99,,,-99.99,,2013-09-11 03:00:00,
2013-09-10 21:55:00,66.0,-99.9,-100.00,South,185,11.0,14.0,-999,-99.99,,,-99.99,,2013-09-11 03:55:00,
2013-09-10 22:00:00,64.0,-99.9,-100.00,South,185,3.0,9.0,-999,-99.99,,,-99.99,,2013-09-11 04:00:00,
2013-09-10 22:54:00,64.0,-99.9,-100.00,South,185,3.0,9.0,-999,-99.99,,,-99.99,,2013-09-11 04:54:00,
2013-09-10 23:00:00,62.0,-99.9,-100.00,South,185,5.0,11.0,-999,-99.99,,,-99.99,,2013-09-11 05:00:00,
2013-09-10 23:53:00,62.0,-99.9,-100.00,South,185,5.0,11.0,-999,-99.99,,,-99.99,,2013-09-11 05:53:00,